Flag for United Kingdom Weather past 2 weeks in Glasgow, Scotland, United Kingdom

Now
28 °F

Clear.


Feels Like: 28 °F
Forecast: 32 / 57 °F
Wind: No wind

Location: Glasgow Airport


UV Index: 3 (Moderate)

Visibility: 10 mi


Pressure: 30.18 "Hg

Humidity: 100%

Dew point: 28 °F

Location of GlasgowLocation

Historic Weather in Glasgow

°F

Glasgow temperature yesterday

Maximum temperature yesterday: 54 °F (at 3:50 PM)
Minimum temperature yesterday: 39 °F (at 10:50 PM)
Average temperature yesterday: 48 °F

Past Weeks' High & Low Weather Summary

 TemperatureHumidityPressure
High59 °F (Apr 6, 1:50 PM)100% (Apr 3, 8:50 PM)30.42 "Hg (Apr 3, 8:50 PM)
Low30 °F (Apr 15, 5:50 AM)47% (Apr 14, 4:20 PM)29.45 "Hg (Apr 6, 10:20 AM)
Average48 °F82%29.93 "Hg
* Reported Apr 3 4:20 AM — Apr 18 4:50 AM, Glasgow, Weather by CustomWeather, © 2014

Note: Actual official high and low records may vary slightly from our data, if they occured in-between our weather recording intervals... More about our weather records

Advertising

Historic Weather Conditions — Data for Previous 24 hours

 ConditionsComfort  
Time TempWeatherWind HumidityBarometerVisibility
4:50 AM
Apr 18
30 °FClear.3 mph93%30.18 "Hg10 mi
4:20 AM30 °FClear.2 mph93%30.18 "Hg10 mi
3:50 AM34 °FClear.No wind87%30.18 "Hg10 mi
3:20 AM32 °FClear.2 mph93%30.18 "Hg10 mi
2:50 AM34 °FClear.No wind93%30.18 "Hg10 mi
2:20 AM34 °FClear.3 mph87%30.15 "Hg10 mi
1:50 AM36 °FClear.No wind87%30.15 "Hg10 mi
1:20 AM36 °FClear.5 mph87%30.15 "Hg10 mi
12:50 AM36 °FChilly.6 mph87%30.15 "HgN/A
12:20 AM37 °FPassing clouds.5 mph81%30.15 "HgN/A
11:50 PM
Apr 17
39 °FClear.5 mph81%30.15 "Hg10 mi
11:20 PM39 °FClear.3 mph81%30.15 "Hg10 mi
10:50 PM39 °FClear.6 mph81%30.12 "Hg10 mi
10:20 PM43 °FClear.9 mph76%30.12 "Hg10 mi
9:50 PM43 °FPassing clouds.7 mph76%30.12 "HgN/A
9:20 PM43 °FSunny.7 mph76%30.09 "Hg10 mi
8:50 PM46 °FSunny.10 mph62%30.09 "Hg10 mi
8:20 PM46 °FSunny.10 mph62%30.07 "Hg10 mi
7:50 PM48 °FSunny.12 mph58%30.07 "Hg10 mi
7:20 PM50 °FSunny.12 mph54%30.07 "Hg10 mi
6:50 PM50 °FPassing clouds.17 mph54%30.04 "HgN/A
5:50 PM52 °FPassing clouds.18 mph54%30.04 "HgN/A
5:20 PM52 °FPassing clouds.15 mph54%30.04 "HgN/A
4:50 PM52 °FScattered clouds.15 mph54%30.01 "HgN/A
4:20 PM52 °FPassing clouds.17 mph50%30.01 "HgN/A
3:50 PM54 °FPassing clouds.18 mph51%30.01 "HgN/A
3:20 PM52 °FPassing clouds.16 mph54%29.98 "HgN/A
2:50 PM52 °FPassing clouds.21 mph54%29.98 "HgN/A
2:20 PM52 °FPassing clouds.18 mph54%29.98 "HgN/A
1:50 PM52 °FScattered clouds.16 mph50%29.98 "HgN/A
1:20 PM52 °FPartly sunny.15 mph58%29.95 "HgN/A
12:50 PM52 °FScattered clouds.20 mph54%29.95 "HgN/A
12:20 PM52 °FBroken clouds.21 mph62%29.92 "HgN/A
11:50 AM52 °FBroken clouds.24 mph67%29.92 "HgN/A
11:20 AM50 °FBroken clouds.22 mph82%29.92 "HgN/A
10:50 AM50 °FBroken clouds.20 mph82%29.92 "HgN/A
10:20 AM48 °FLight rain. Broken clouds.22 mph87%29.92 "HgN/A
9:50 AM48 °FDrizzle. Broken clouds.18 mph87%29.92 "HgN/A
9:20 AM48 °FBroken clouds.20 mph82%29.92 "HgN/A
8:20 AM46 °FScattered showers. Broken clouds.20 mph87%29.92 "HgN/A
7:50 AM46 °FBroken clouds.21 mph87%29.95 "HgN/A
7:20 AM46 °FScattered showers. Broken clouds.18 mph87%29.95 "HgN/A
6:50 AM46 °FLight rain. Partly cloudy.21 mph82%29.92 "HgN/A
6:20 AM46 °FLight rain. Partly cloudy.17 mph87%29.92 "HgN/A
5:50 AM46 °FPassing clouds.17 mph82%29.92 "HgN/A
5:20 AM46 °FPassing clouds.18 mph82%29.92 "HgN/A
Weather by CustomWeather, © 2014

See weather overview